Home   Weather   Fort Wayne   Past weeks
Flag for USA

Past Weather in Fort Wayne, Indiana, USA — Yesterday and Last 2 Weeks

Now
35 °F

Passing clouds.


Feels Like: 32 °F
Forecast: 71 / 36 °F
Wind: 3 mph from East

Location: Fort Wayne International Airport

Current Time: Oct 15, 2019 at 5:27:04 am

Latest Report: Oct 15, 2019 at 4:54 am


Visibility: 10 mi

Pressure: 30.10 "Hg

Humidity: 88%

Dew Point: 32 °F

Location of Fort WayneLocation

Past Weather in Fort Wayne — Graph

°F

Fort Wayne Temperature Yesterday

Maximum temperature yesterday: 56 °F (at 3:54 pm)
Minimum temperature yesterday: 37 °F (at 11:54 pm)
Average temperature yesterday: 46 °F

High & Low Weather Summary for the Past Weeks

 TemperatureHumidityPressure
High89 °F (Oct 1, 3:54 pm)100% (Sep 30, 5:54 am)30.37 "Hg (Sep 30, 5:54 am)
Low32 °F (Oct 12, 7:54 am)27% (Oct 13, 3:54 pm)29.82 "Hg (Oct 13, 4:54 pm)
Average59 °F72%30.07 "Hg
* Reported Sep 30 3:54 am — Oct 15 3:54 am, Fort Wayne. Weather by CustomWeather, © 2019

Note: Actual official high and low records may vary slightly from our data, if they occured in-between our weather recording intervals... More about our weather records

Advertising

Fort Wayne Weather History for the Previous 24 Hours

Scroll right to see more
 ConditionsComfort  
Time TempWeatherWind HumidityBarometerVisibility
3:54 am
Tue, Oct 15
36 °FPassing clouds.No wind89%30.11 "Hg10 mi
2:54 am37 °FPassing clouds.No wind86%30.12 "Hg10 mi
1:54 am36 °FPassing clouds.No wind89%30.11 "Hg10 mi
12:54 am37 °FPassing clouds.No wind86%30.11 "Hg10 mi
11:54 pm
Mon, Oct 14
37 °FClear.No wind89%30.11 "Hg10 mi
10:54 pm39 °FClear.No wind86%30.11 "Hg10 mi
9:54 pm40 °FClear.No wind86%30.12 "Hg10 mi
8:54 pm42 °FPassing clouds.No wind76%30.11 "Hg10 mi
7:54 pm43 °FPassing clouds.No wind76%30.11 "Hg10 mi
6:54 pm51 °FPassing clouds.5 mph52%30.09 "Hg10 mi
5:54 pm55 °FPassing clouds.7 mph44%30.08 "Hg10 mi
4:54 pm56 °FPassing clouds.8 mph40%30.08 "Hg10 mi
3:54 pm56 °FPassing clouds.12 mph42%30.09 "Hg10 mi
2:54 pm55 °FPassing clouds.12 mph42%30.08 "Hg10 mi
1:54 pm54 °FPassing clouds.9 mph45%30.09 "Hg10 mi
12:54 pm52 °FPassing clouds.10 mph49%30.10 "Hg10 mi
11:54 am50 °FPassing clouds.9 mph52%30.10 "Hg10 mi
10:54 am49 °FPassing clouds.7 mph55%30.10 "Hg10 mi
9:54 am46 °FPassing clouds.7 mph68%30.10 "Hg10 mi
8:54 am42 °FPassing clouds.6 mph79%30.06 "Hg10 mi
7:54 am38 °FPassing clouds.6 mph90%30.03 "Hg10 mi
6:54 am39 °FPassing clouds.6 mph89%30.02 "Hg10 mi
5:54 am43 °FPassing clouds.No wind86%30.00 "Hg10 mi
Weather by CustomWeather, © 2019

See weather overview